Hourly Data Report for October 08, 2016

All times are specified in Local Standard Time (LST). Add 1 hour to adjust for Daylight Saving Time where and when it is observed.

GRISE FIORD CLIMATE
NUNAVUT

76°25'22.040" N
82°54'08.020" W
44.50 m
2402351
71971
NGC

Download Data

Hourly Data (October 2016)
Hourly Data Report for October 8, 2016
Temp Definition
°C
Dew Point Temp Definition
°C
Rel Hum Definition
%
Wind Dir Definition
10's deg

Wind Spd Definition
km/h
Visibility Definition
km
Stn Press Definition
kPa
Hmdx Definition


Wind Chill Definition


Weather Definition


TIME
00:00 -4.6 -5.7 92 4 8   101.28   -8 LegendNANA
01:00 -4.4 -5.7 91 3 9   101.26   -8 LegendNANA
02:00 -4.4 -4.7 98 14 7   101.26   -8 LegendNANA
03:00 -4.2 -4.3 99 0 1   101.26   -5 LegendNANA
04:00 -3.9 -4.8 94 16 6   101.23   -7 LegendNANA
05:00 -3.5 -3.8 98 20 10   101.21   -7 LegendNANA
06:00 -3.9 -4.7 94 2 2   101.19   -5 LegendNANA
07:00 -4.0 -4.3 97 0 1   101.16   -4 LegendNANA
08:00 -3.8 -4.5 95 17 2   101.12   -5 LegendNANA
09:00 -3.8 -3.9 99 13 5   101.08   -6 LegendNANA
10:00 -3.8 -4.8 93 14 2   101.01   -5 LegendNANA
11:00 -3.7 -4.9 91 16 4   100.95   -5 LegendNANA
12:00 -3.9 -5.4 89 12 4   100.90   -6 LegendNANA
13:00 -3.9 -5.4 89 4 5   100.84   -6 LegendNANA
14:00 -3.9 -4.3 97 34 2   100.80   -5 LegendNANA
15:00 -4.1 -4.5 97 4 4   100.75   -6 LegendNANA
16:00 -4.1 -4.5 97   0   100.70     LegendNANA
17:00 -5.2 -7.5 84 4 12   100.64   -10 LegendNANA
18:00 -5.7 -8.0 83 5 14   100.60   -11 LegendNANA
19:00 -5.7 -8.3 81 5 14   100.55   -11 LegendNANA
20:00 -5.1 -7.9 81 4 9   100.52   -9 LegendNANA
21:00 -7.0 -9.7 81 5 5   100.48   -10 LegendNANA
22:00 -6.2 -8.2 85 5 5   100.44   -9 LegendNANA
23:00 -6.6 -9.4 81 5 11   100.39   -12 LegendNANA

Notes on Data Quality.

Legend

  • E = Estimated
  • M = Missing
  • NA = Not Available
  • ‡ = Partner data that is not subject to review by the National Climate Archives
Date modified: